This is the latest recevied weather packets stored in our database for station/object KI4HRG. If no packets are shown the sender has not sent any weather packets the latest 10 day(s).
| Time | Temp. | Humidity | Pressure | Rain* | Wind** | Luminosity | Snow |
|---|---|---|---|---|---|---|---|
| 1787834755 | 21.67° C | 99% | 1016.2 hPa | 0 mm | - | 87 W/m² | - |
| 1787834451 | 21.67° C | 99% | 1015.9 hPa | 0 mm | - | 63 W/m² | - |
| 1787834147 | 21.67° C | 99% | 1015.9 hPa | 0 mm | - | 38 W/m² | - |
| 1787833842 | 21.67° C | 99% | 1015.9 hPa | 0 mm | - | 31 W/m² | - |
| 1787833537 | 21.67° C | 99% | 1015.8 hPa | 0 mm | - | 26 W/m² | - |
| 1787833233 | 21.67° C | 99% | 1015.8 hPa | 0 mm | - | 22 W/m² | - |
| 1787832928 | 21.67° C | 99% | 1015.8 hPa | 0 mm | - | 17 W/m² | - |
| 1787832624 | 21.67° C | 99% | 1015.7 hPa | 0 mm | - | 12 W/m² | - |
| 1787832323 | 21.67° C | 99% | 1015.7 hPa | 0 mm | - | 12 W/m² | - |
| 1787832022 | 21.67° C | 99% | 1015.6 hPa | 0 mm | - | 12 W/m² | - |
| 1787831716 | 21.67° C | 99% | 1015.6 hPa | 0 mm | - | 14 W/m² | - |
| 1787831415 | 21.11° C | 99% | 1015.5 hPa | 0 mm | - | 18 W/m² | - |
| 1787831113 | 21.11° C | 99% | 1015.3 hPa | 0 mm | - | 0 W/m² | - |
| 1787830811 | 21.11° C | 99% | 1015.4 hPa | 0 mm | - | 0 W/m² | - |
| 1787830510 | 21.11° C | 99% | 1015.2 hPa | 0 mm | - | 0 W/m² | - |
| 1787830210 | 21.11° C | 99% | 1015.3 hPa | 0 mm | - | 0 W/m² | - |
| 1787829905 | 21.11° C | 99% | 1015.2 hPa | 0 mm | - | 0 W/m² | - |
| 1787829603 | 21.11° C | 99% | 1014.9 hPa | 0 mm | - | 0 W/m² | - |
| 1787829300 | 21.11° C | 99% | 1014.9 hPa | 0 mm | - | 0 W/m² | - |
| 1787828995 | 21.11° C | 99% | 1014.8 hPa | 0 mm | - | 0 W/m² | - |
| 1787828691 | 21.11° C | 99% | 1014.9 hPa | 0 mm | - | 0 W/m² | - |
| 1787828386 | 21.11° C | 99% | 1014.9 hPa | 0 mm | - | 0 W/m² | - |
| 1787828085 | 21.11° C | 99% | 1014.9 hPa | 0 mm | - | 0 W/m² | - |
| 1787827779 | 21.11° C | 99% | 1014.7 hPa | 0 mm | - | 0 W/m² | - |
| 1787824444 | 21.67° C | 99% | 1014.9 hPa | 0 mm | - | 0 W/m² | - |
* Rain latest hour (hover to see other rain measurements)
** Current wind speed in m/s (hover to see current wind gust speed)